User: anonymous   Login
Location: Unspecified
(0.0000°N, 0.0000°E)
Time: 18:00:47
(UTC+00:00)
Language:

STARLINK-11343 [DTC] - Orbit

View from above orbital plane
View from above orbital plane
View from above satellite
View from above satellite

Ground track
Ground track

The orbit is defined by the following mean orbital elements,

1 62017U          26145.09284641 +.00000000 +00000-0 +12311-2 0 00001
2 62017  53.1577  24.7352 0000782  87.9172 272.1936 15.69764246    00
Epoch (UTC): 25 May 2026 02:13:41
Eccentricity: 0.0000782
inclination: 53.1577°
perigee height: 359 km
apogee height: 360 km
right ascension of ascending node: 24.7352°
argument of perigee: 87.9172°
revolutions per day: 15.69764246
mean anomaly at epoch: 272.1936°

The dashed part of the orbit path shows where the satellite is in the earth's shadow,  

DLR